Regional Weather Roundup
Issued by NWS

Home | Current Version | Previous Version | Text Only | Print | Product List | Glossary Off
Versions: 1 2 3 4 5 6 7 8 9 10 11 12 13 14 15 16 17 18 19 20 21 22 23 24 25 26 27 28 29 30 31 32 33 34 35 36 37 38 39 40 41 42 43 44 45 46 47 48 49 50

000
ASUS43 KOAX 261310
RWRNE

WEATHER ROUNDUP FOR NEBRASKA
NATIONAL WEATHER SERVICE OMAHA NE
800 AM CDT SUN MAR 26 2017

NOTES: SATELLITE DATA IS BEING USED TO AUGMENT CLOUD COVER ABOVE
       12000 FEET.
       "FAIR" INDICATES FEW OR NO CLOUDS BELOW 12,000 FEET WITH NO
       SIGNIFICANT WEATHER AND/OR OBSTRUCTIONS TO VISIBILITY.

  * THESE STATIONS DO NOT REPORT WEATHER SUCH AS RAIN...SNOW OR FOG.

NEZ001>004-019>022-054>056-261400-
NEBRASKA PANHANDLE

CITY           SKY/WX    TMP DP  RH WIND       PRES   REMARKS
SCOTTSBLUFF    CLOUDY    41  30  65 CALM      29.82R
ALLIANCE       CLOUDY    37  36  96 N3        29.82R
CHADRON        CLOUDY    44  32  62 N12       29.85R
KIMBALL        CLOUDY    44  36  72 CALM      29.83R
SIDNEY         CLOUDY    42  31  64 SE6       29.82R
$$

NEZ057>060-069>072-079>082-261400-
SOUTHWEST NEBRASKA

CITY           SKY/WX    TMP DP  RH WIND       PRES   REMARKS
NORTH PLATTE   CLOUDY    40  37  89 CALM      29.87R
IMPERIAL       FOG       39  39 100 SE8       29.85R VSB 3/4 WCI  33
LEXINGTON      CLOUDY    40  38  91 S3        29.88R
MCCOOK         CLOUDY    40  40 100 SE5       29.87R FOG
OGALLALA       FOG       41  40  97 E3        29.84S VSB 1/4
$$

NEZ005>010-023>029-035>040-094-261400-
NORTH CENTRAL NEBRASKA

CITY           SKY/WX    TMP DP  RH WIND       PRES   REMARKS
VALENTINE      CLOUDY    38  36  92 S3        29.87R
AINSWORTH      FOG       38  38 100 SW3       29.87S VSB 1/2
BROKEN BOW     CLOUDY    40  40 100 SW5       29.87R
O`NEILL        FOG       39  39  99 CALM      29.89S VSB<1/4
ORD            CLOUDY    40  37  89 CALM      29.88R FOG
THEDFORD       CLOUDY    39  38  96 SW6       29.87S FOG
$$

NEZ041-046>049-061>064-073>077-083>087-261400-
SOUTH CENTRAL NEBRASKA

CITY           SKY/WX    TMP DP  RH WIND       PRES   REMARKS
GRAND ISLAND   CLOUDY    38  38 100 E5        29.90R FOG     WCI  34
AURORA         CLOUDY    38  38 100 CALM      29.90R FOG
HASTINGS       FOG       39  38  96 CALM      29.90R VSB 1
HEBRON         CLOUDY    39  38  97 CALM      29.90S FOG
HOLDREGE       CLOUDY    39  38  96 CALM      29.87S FOG
KEARNEY *      CLOUDY    39  36  87 CALM      29.89S VSB 1
YORK           CLOUDY    39  39 100 CALM      29.91R FOG
$$

NEZ011>018-030>034-042>045-261400-
NORTHEAST NEBRASKA

CITY           SKY/WX    TMP DP  RH WIND       PRES   REMARKS
NORFOLK        CLOUDY    38  36  92 CALM      29.89S FOG
ALBION         CLOUDY    40  38  91 CALM      29.90R FOG
BLAIR          CLOUDY    39  38  97 N7        29.89S FOG     WCI  34
FREMONT        CLOUDY    39  39 100 N3        29.90F FOG
TEKAMAH        CLOUDY    39  38  96 N9        29.91S FOG     WCI  33
WAYNE          FOG       38  38  99 N3        29.90S VSB 1
$$

NEZ050>053-065>068-078-088>093-261400-
SOUTHEAST NEBRASKA

CITY           SKY/WX    TMP DP  RH WIND       PRES   REMARKS
LINCOLN        CLOUDY    40  39  97 N3        29.92R
OMAHA EPPLEY   CLOUDY    40  37  89 N6        29.90S
BEATRICE       CLOUDY    40  40  99 N6        29.89S FOG
FALLS CITY     CLOUDY    42  41  96 NW3       29.90S FOG
NEBRASKA CITY  FOG       40  40 100 N5        29.89F VSB 3/4
PLATTSMOUTH    CLOUDY    40  38  91 NW3       29.90S FOG
$$

NEZ044-045-051>053-067-261400-
OMAHA AREA

CITY           SKY/WX    TMP DP  RH WIND       PRES   REMARKS
OMAHA EPPLEY   CLOUDY    40  37  89 N6        29.90S
BLAIR          CLOUDY    39  38  97 N7        29.89S FOG     WCI  34
FREMONT        CLOUDY    39  39 100 N3        29.90F FOG
MILLARD        CLOUDY    42  40  93 N3        29.91R
OFFUTT AFB     CLOUDY    41  38  92 CALM      29.90S
PLATTSMOUTH    CLOUDY    40  38  91 NW3       29.90S FOG
WAHOO          CLOUDY    39  38  97 N7        29.90S FOG     WCI  34
$$



USA.gov is the U.S. government's official web portal to all federal, state and local government web resources and services.